Погода в Балясном

Украина / Полтавская область     49°49′13″N   34°20′07″E
темп.,
°C
ветер,
м/с
пор.,
м/с
влажн.,
%
обл.,
%
осадки,
мм/ч
давл.,
гПа
погр.,
м
18 мая, вт
вт1800:00+15ююз2393100 0.0 100539
03:00+14ю3395100 0.0 100454
06:00+14ю2393100 0.0 100474
09:00+17ю4585100 0.6 1004382
12:00+20ю677088 2.9 10031212
15:00+20ю6863100 3.9 10021494
18:00+18ю697629 1.7 1002875
21:00+14ю5119099 2.4 1002445
19 мая, ср
ср1900:00+13юв5109849 0.4 1002358
03:00+11ююв5109730 0.4 1002298
06:00+11ююв5109877 0.0 1003338
09:00+15ююв5781100 0.0 1003624
12:00+18ююв5662100 0.3 10041463
15:00+19ююв4560100 1.6 10031396
18:00+17юв3475100 1.6 1003184
21:00+14ююв2283100 1.8 100425
20 мая, чт
чт2000:00+12зюз3591100 0.1 100499
03:00+11з5895100 0.3 1004431
06:00+11зюз5997100 0.1 1006480
09:00+11з5893100 0.1 1007561
12:00+12зюз5785100 0.1 1009858
15:00+14з477778 0.1 1011768
18:00+16зсз467460 0.1 1011893
21:00+12с2282100 0.2 101323
21 мая, пт
пт2100:00+12св2278100 0.0 101438
03:00+11всв228199 0.0 101439
06:00+10всв4891100 0.8 1014195
09:00+13всв6978100 0.8 1014428
12:00+15св6969100 0.0 1014649
15:00+15всв5976100 0.3 1014692
18:00+17св6974100 0.0 1012653
21:00+14св61285100 0.1 1013360
22 мая, сб
сб2200:00+13св61395100 1.4 1012348
03:00+13св61396100 2.0 1012378
06:00+13ссв61295100 0.1 1011393
09:00+16св6886100 0.1 1011637
12:00+20св557185 0.0 10111012
15:00+22св4466100 0.0 10101191
18:00+22с4573100 0.0 1010689
21:00+17ссв489397 0.1 1010167